Weather History for KAPF - February, 2013

Change the Weather History Date:

Monday, February 25, 2013

  Actual Average Record
Temperature  
Mean Temperature 74 °F 68 °F  
Max Temperature 82 °F 78 °F 86 °F (1962)
Min Temperature 66 °F 58 °F 35 °F (1989)
Degree Days  
Heating Degree Days 0 1  
Month to date heating degree days 36 46  
Since 1 July heating degree days 94 226  
Cooling Degree Days 9 5  
Month to date cooling degree days 109 92  
Year to date cooling degree days 302 178  
Growing Degree Days 24 (Base 50)    
Moisture  
Dew Point 68 °F    
Average Humidity 85    
Maximum Humidity 100    
Minimum Humidity 69    
Precipitation  
Precipitation 0.00 in 0.08 in 2.56 in (2004)
Month to date precipitation 1.60 1.88  
Year to date precipitation 1.75 3.73  
Snow  
Snow 0.00 in - - ()
Month to date snowfall 0.0  
Since 1 July snowfall 0.0  
Snow Depth 0.00 in    
Sea Level Pressure  
Sea Level Pressure 29.87 in    
Wind  
Wind Speed 5 mph (ESE)    
Max Wind Speed 13 mph    
Max Gust Speed -    
Visibility 4 miles    
Events      
T = Trace of Precipitation, MM = Missing Value Source: NWS Daily Summary

Daily Weather History Graph

Daily Weather History Graph

Search for Another Location

Airport or City:

Trip Planner

Search our weather history database for the weather conditions in past years. The results will help you decide how hot, cold, wet, or windy it might be!

Date:

Astronomy

Feb. 25, 2013 Rise Set
Actual Time 6:54 AM EST 6:26 PM EST
Civil Twilight 6:30 AM EST 6:49 PM EST
Nautical Twilight 6:03 AM EST 7:16 PM EST
Astronomical Twilight 5:37 AM EST 7:43 PM EST
Moon 6:32 PM EST (2/25) 6:27 AM EST (2/25)
Length of Visible Light 12h 18m
Length of Day
11h 32m
Full, 100% of the Moon is Illuminated
Feb 25
Full
Feb 25
Full
Mar 4
Last Quarter
Mar 11
New
Mar 19
First Quarter

Hourly Weather History & Observations

Time (EST) Temp. Heat Index Dew Point Humidity Pressure Visibility Wind Dir Wind Speed Gust Speed Precip Events Conditions
12:53 AM 68.0 °F - 66.9 °F 96% 29.91 in 4.0 mi Calm Calm - N/A   Clear
1:17 AM 68.0 °F - 66.2 °F 94% 29.89 in 2.5 mi ENE 5.8 mph - N/A   Scattered Clouds
1:21 AM 68.0 °F - 66.2 °F 94% 29.89 in 1.2 mi ENE 4.6 mph - N/A   Mostly Cloudy
1:31 AM 66.2 °F - 66.2 °F 100% 29.89 in 0.8 mi NE 4.6 mph - N/A   Mist
1:53 AM 66.9 °F - 66.0 °F 97% 29.88 in 1.0 mi ENE 4.6 mph - N/A   Overcast
2:14 AM 66.2 °F - 66.2 °F 100% 29.88 in 3.0 mi Calm Calm - N/A   Mostly Cloudy
2:29 AM 66.2 °F - 66.2 °F 100% 29.88 in 4.0 mi Calm Calm - N/A   Scattered Clouds
2:53 AM 66.9 °F - 66.0 °F 97% 29.88 in 4.0 mi Calm Calm - N/A   Clear
3:53 AM 66.9 °F - 66.0 °F 97% 29.87 in 4.0 mi Calm Calm - N/A   Clear
4:53 AM 66.0 °F - 64.9 °F 96% 29.86 in 4.0 mi East 3.5 mph - N/A   Clear
5:53 AM 66.9 °F - 64.9 °F 93% 29.85 in 5.0 mi ESE 4.6 mph - N/A   Clear
6:39 AM 66.2 °F - 64.4 °F 94% 29.86 in 6.0 mi ESE 5.8 mph - N/A   Mostly Cloudy
6:53 AM 68.0 °F - 64.9 °F 90% 29.86 in 7.0 mi ESE 6.9 mph - N/A   Overcast
7:31 AM 69.8 °F - 66.2 °F 88% 29.88 in 5.0 mi East 4.6 mph - N/A   Overcast
7:39 AM 69.8 °F - 66.2 °F 88% 29.89 in 5.0 mi East 4.6 mph - N/A   Overcast
7:53 AM 70.0 °F - 66.9 °F 90% 29.89 in 5.0 mi Calm Calm - N/A   Mostly Cloudy
8:06 AM 69.8 °F - 66.2 °F 88% 29.90 in 5.0 mi East 4.6 mph - N/A   Mostly Cloudy
8:42 AM 71.6 °F - 69.8 °F 94% 29.90 in 4.0 mi ESE 5.8 mph - N/A   Overcast
8:53 AM 72.0 °F - 70.0 °F 93% 29.90 in 4.0 mi ESE 6.9 mph - N/A   Overcast
9:01 AM 71.6 °F - 69.8 °F 94% 29.90 in 3.0 mi SE 5.8 mph - N/A   Overcast
9:09 AM 73.4 °F - 71.6 °F 94% 29.90 in 2.5 mi ESE 6.9 mph - N/A   Overcast
9:19 AM 73.4 °F - 71.6 °F 94% 29.90 in 3.0 mi SE 9.2 mph - N/A   Overcast
9:53 AM 77.0 °F - 72.0 °F 84% 29.90 in 5.0 mi SSE 6.9 mph - N/A   Haze
10:28 AM 78.8 °F - 71.6 °F 78% 29.91 in 7.0 mi South 8.1 mph - N/A   Mostly Cloudy
10:53 AM 81.0 °F 84.4 °F 70.0 °F 69% 29.90 in 8.0 mi SSE 11.5 mph - N/A   Mostly Cloudy
11:53 AM - - - N/A% 29.87 in - North - - N/A   Mostly Cloudy
12:53 PM 82.4 °F 87.2 °F 71.6 °F 70% 29.86 in 10.0 mi SW 12.7 mph - N/A   Mostly Cloudy
1:53 PM 81.0 °F 84.9 °F 71.1 °F 72% 29.84 in 8.0 mi SSW 10.4 mph - N/A   Mostly Cloudy
2:53 PM - - - N/A% 29.84 in - North - - N/A   Unknown
3:53 PM - - - N/A% 29.81 in - North - - N/A   Unknown
4:53 PM - - - N/A% 29.82 in - North - - N/A   Unknown
5:53 PM - - - N/A% 29.81 in - North - - N/A   Unknown
6:53 PM - - - N/A% 29.82 in - North - - N/A   Unknown
7:53 PM - - - N/A% 29.82 in - North - - N/A   Unknown
8:53 PM - - - N/A% 29.83 in - North - - N/A   Unknown
10:53 PM - - - N/A% 29.84 in - North - - N/A   Unknown
11:53 PM - - - N/A% 29.84 in - North - - N/A   Unknown